Regional Weather Roundup
Issued by NWS Wakefield, VA

Home | Current Version | Previous Version | Graphics & Text | Print | Product List | Glossary On
Versions: 1 2 3 4 5 6 7 8 9 10 11 12 13 14 15 16 17 18 19 20 21 22 23 24 25 26 27 28 29 30 31 32 33 34 35 36 37 38 39 40 41 42 43 44 45 46 47 48 49 50
000
ASUS41 KAKQ 260015
RWRAKQ

REGIONAL WEATHER ROUNDUP
NATIONAL WEATHER SERVICE WAKEFIELD VA
800 PM EDT SUN JUN 25 2017

Note: "fair" indicates few or no clouds below 12,000 feet with no
significant weather and/or obstructions to visibility. * = Denotes
station may not report precipitation (e.g., rain,snow,etc.),
thunder or fog.

VAZ042-051-052>054-056-260100-
NORTHERN VIRGINIA

CITY           SKY/WX    TMP DP  RH WIND       PRES   REMARKS
WASH NATIONAL  PTCLDY    82  46  28 NW16      30.01R
DULLES         PTCLDY    78  45  30 NW9       30.03R
FORT BELVOIR   PTCLDY    81  46  29 NW10G17   30.01R
QUANTICO       CLOUDY    82  49  31 N9        30.01R
FREDERICKSBRG* CLOUDY    81  58  45 N9        30.00R
STAFFORD*      MOCLDY    77  53  42 NW7       30.05R
WARRENTON      CLOUDY    80  44  27 NW5       30.03R
CULPEPER*      MOCLDY    79  50  36 NW6       30.04R
MANASSAS*      MOCLDY    79  50  36 N9        30.03R
LEESBURG*      CLEAR    N/A N/A N/A NW9       30.04R
WINCHESTER     CLEAR     73  45  35 W6        30.05R
FRONT ROYAL*   CLEAR     77  43  29 W8        30.05S
LURAY*         PTCLDY    77  45  31 W5        30.06S
$$

VAZ048-049-060>072-079>083-260100-
CENTRAL AND SOUTH CENTRAL VIRGINIA

CITY           SKY/WX    TMP DP  RH WIND       PRES   REMARKS
RICHMOND       CLOUDY    80  59  48 W7        30.01R
CHESTERFIELD*  FAIR      78  61  55 W6        30.03R
PETERSBURG*    CLOUDY    76  60  58 CALM      30.03S
HANOVER        CLOUDY    78  59  51 W7        30.03R
TAPPAHANNOCK*  CLOUDY    79  52  39 SW3       30.01R
QUINTON*       FAIR      78  65  64 W5        30.01R
CHARLOTTSVILLE PTCLDY    79  48  33 NW5       30.04R
GORDONSVILLE*  MOCLDY    79  51  37 CALM      30.03R
ORANGE*        CLOUDY    77  48  36 NW6       30.03R
LOUISA*        PTCLDY    79  66  65 W3        30.02R
BUMPASS*       FAIR      76  64  65 SW5       30.02R
FARMVILLE*     CLOUDY    75  58  54 SW3       30.04R
CREWE*         FAIR      76  51  41 W3        30.05R
FORT PICKETT*  FAIR      75  54  47 W7        30.05R
CHASE CITY*    FAIR      73  67  82 CALM      30.07R
CLARKSVILLE*   FAIR      73  66  78 SW3       30.07R
SOUTH HILL*    PTCLDY    75  61  60 CALM      30.11R
LAWRENCEVILLE* FAIR      75  60  59 W3        30.05R
EMPORIA*       CLOUDY    77  61  57 SW6       30.06R
$$

VAZ088>098-260100-
SOUTHEAST VIRGINIA

CITY           SKY/WX    TMP DP  RH WIND       PRES   REMARKS
NORFOLK        MOCLDY    82  62  50 CALM      30.00R
VIRGINIA BEACH MOCLDY    78  61  55 E5        30.00R
NORFOLK NAVAL  NOT AVBL
WEST POINT*    CLOUDY    79  63  56 W5        30.02R
SALUDA*        FAIR      78  65  64 S3        30.00R
NEWPORT NEWS   CLOUDY    78  67  68 E3        30.01R
LANGLEY AFB    CLOUDY    78  67  68 E3        30.00R
FORT EUSTIS    CLOUDY    81  65  57 CALM      29.99R
WILLIAMSBURG*  CLOUDY    79  66  65 CALM      30.01S
HR EXEC AP*    FAIR      75  70  83 NW3       29.99R
FRANKLIN*      CLOUDY    79  63  57 W6        30.02R
US460-WAKEFLD  CLOUDY    79  64  60 CALM      30.02R
$$

VAZ020-022-025-037-045-260100-
WEST CENTRAL AND SOUTHWEST VIRGINIA

CITY           SKY/WX    TMP DP  RH WIND       PRES   REMARKS
STAUNTON*      PTCLDY    73  46  38 NW8       30.11R
WAYNESBORO*    CLEAR     73  46  38 NW6       30.10R
HOT SPRINGS VA CLEAR     63  32  31 W9        30.20S
LYNCHBURG      CLEAR     74  54  49 W3        30.09R
DANVILLE       CLOUDY    74  64  71 W5        30.08R
SOUTH BOSTON*  FAIR      76  64  66 CALM      30.07R
MARTINSVILLE   PTCLDY    70  63  78 CALM      30.13R
ROANOKE        PTCLDY    74  48  39 NW8       30.13R
BLACKSBURG     CLEAR     71  45  38 NW7       30.18S
DUBLIN*        CLEAR     71  39  30 NW6       30.18R
MARION*        CLEAR     70  43  37 W5        30.22R
HILLSVILLE*    CLEAR     68  41  36 N8        30.18R
RICHLANDS*     FAIR      67  47  47 NW6       30.21R
WISE*          CLEAR     68  43  40 CALM      30.22S
ABINGDON*      CLEAR     73  46  37 N3        30.18R
$$

MDZ021>025-VAZ099-100-260100-
SOUTHERN MARYLAND AND THE DELMARVA PENINSULA

CITY           SKY/WX    TMP DP  RH WIND       PRES   REMARKS
PATUXENT RIVER CLOUDY    80  64  58 SW6       29.99R
BAY BRIDGE APT PTCLDY    81  50  34 NW12G20   29.99R
LEONARDTOWN    CLOUDY    79  63  57 CALM      30.01R
DOVER          PTCLDY    81  64  56 SW7       29.96R
GEORGETOWN     CLOUDY    82  60  47 CALM      29.98R
EASTON         MOCLDY    81  63  54 CALM      30.03R
CAMBRIDGE      CLEAR     81  63  54 CALM      29.99R
SALISBURY      CLOUDY    78  63  59 SW7       29.99R
OCEAN CITY     CLOUDY    73  67  81 S5        30.00S
WALLOPS ISLAND PTCLDY    77  60  55 S3        30.00R
ACCOMACK*      CLOUDY    78  65  65 CALM      30.00R
$$

NCZ012>017-030>032-260100-
NORTH CENTRAL AND EASTERN NORTH CAROLINA

CITY           SKY/WX    TMP DP  RH WIND       PRES   REMARKS
ROANOKE RAPIDS FAIR      77  63  61 W3        30.04R
RALEIGH        CLOUDY    78  64  61 NW3       30.07R
ELIZABETH CITY PTCLDY    80  74  81 CALM      30.01R
AHOSKIE*         N/A     75  70  85 CALM      30.04R
EDENTON*       PTCLDY    83  68  60 CALM      30.02R
CURRITUCK*     PTCLDY    79  72  78 CALM      30.02R
KILL DEVIL HLS MOCLDY    82  72  71 CALM      30.00R
MANTEO         PTCLDY    81  74  79 CALM      30.01R
CAPE HATTERAS  CLOUDY    80  75  84 SW8       30.02R
TARBORO*       NOT AVBL
GOLDSBORO      NOT AVBL
WASHINGTON     MOCLDY   N/A N/A N/A CALM      30.03R
GREENVILLE     CLOUDY    81  64  57 CALM      30.05R
NEW BERN       CLOUDY    80  74  81 S3        30.04R
WILMINGTON     LGT RAIN  74  72  93 SW9       30.07R
$$

VAZ048-260100-
ELSEWHERE

CITY           SKY/WX    TMP DP  RH WIND       PRES   REMARKS
HARRISBURG PA  PTCLDY    78  50  37 W10       29.98R
BALTIMORE      PTCLDY    79  49  34 W12G17    30.00R
ANNAPOLIS      PTCLDY    79  52  38 NW8       29.99R
ANDREWS AFB    PTCLDY    80  45  28 NW13      30.00R
PHILADELPHIA   MOCLDY    83  52  34 W13       29.96R
HENDERSON NC   CLOUDY    72  60  66 CALM      30.08R
GREENSBORO     CLOUDY    74  63  68 W6        30.10R
ROCKY MOUNT    CLOUDY    80  64  58 W5        30.05R
$$

VAZ100-260100-
MARINE

STATION/POSITION TIME  TEMP    WIND        PRES    WAVE   SWELL
                       AIR SEA DIR/SP/G            HT/PER HT/PER
                 (UTC) (F)     (DEG/KT/KT) (MB)    (FT/S) (FT/S)
BRANDYWINE LGT   2342   75     190/ 14/ 15 1015.4R
CAPE MAY NJ      2348   72 70  170/  8/ 11 1015.1R
LEWES DE         2348   78 73  190/  3/  6 1015.3R
15NM E FENWICK I 2350   71 70  210/  6/  8 1015.9R   2/ 6   2/ 6
OCEAN-CITY-INLET 2348   70 68  190/  4/  6 1015.9R
WACHAPREAGUE VA  2348   78 84  150/  4/  6 1015.7R
THOMAS POINT MD  0000   81 79  310/ 14/ 16   N/A
GOOSES REEF MD   2350   83     310/  8/  8 1016.2R
COVE POINT MD    2348   81     260/  4/  8 1016.1R
SOLOMONS ISLAND  2348   80 79  240/  5/  6   N/A
BISHOPS HEAD MD  2348   82 85  240/  7/  8 1015.5R
PINEY POINT MD   2342          200/  4/  5   N/A
POTOMAC MD       2350   80     190/  6/  8 1014.8R
CAMBRIDGE MD     2348   81 83              1016.2R
LEWISETTA VA     2348   81 81  190/  4/  4 1015.5R
RAPPAHANNOCK LGT 2342          230/  2/  2 1016.5R
STINGRAY PT      2350   81     190/  6/  6 1016.4F
YORK RVR RNG VA  2348   80     120/  5/  5 1016.3R
YORKTOWN VA      2348   80 80  100/  5/  6 1015.7R
JAMESTOWN VA     2350   82     280/  8/ 10   N/A
DOMINION TERM VA 2348   81     120/  1/  2 1016.3R
KIPTOPEKE VA     2342      78  290/  2/  3   N/A
CHES BAY BRIDGE  2348   78 76   60/  2/  3 1016.0R
CAPE HENRY VA    2348   80     120/  5/  5   N/A
WILLOUBY STN VA  2348   80      80/  3/  3 1016.1R
S CRANEY ISL VA  2348   82     330/  1/  3 1015.9R
CAPE HENRY BUOY  2330      75                N/A     2/ 6
1ST LANDING BUOY 2350   79                 1015.8R
CAPE CHARLES BUO 2351      74                N/A     2/ 8
64NM E OF VA BCH 2350   75 76  180/  2/  4 1016.6R   3/ 6   3/ 6
DUCK PIER NC     2348   73 63   20/  9/  9 1015.8R
44100 DUCK FRF   2335      75                N/A     2/ 8
OREGON INLET NC  2342   83 83  210/  6/  8 1015.9R
HATTERAS NC      2348   79 79  230/  6/  9 1016.5R
DIAMOND SHLS NC  2350   79 80  250/ 10/ 12 1016.6R   3/ 8   2/ 8
CAPE LOOKOUT NC  0000   78     290/  8/ 10 1016.7R
$$



USA.gov is the U.S. government's official web portal to all federal, state and local government web resources and services.